Location: Korczew
(51.3586°N, 19.4491°E)
Time: 21:50:16
(UTC+00:00)

Cosmos 2082 Rocket - Pass Details

Date: 19 May 2025
Orbit: 832 x 853 km, 71.0° (Epoch: 16 June)

Event Time Altitude Azimuth Distance (km) Brightness Sun altitude
Rises 23:24:43 0° 261° (W) 3,377 5.1 -17.9°
Reaches altitude 10° 23:27:47 10° 277° (W) 2,448 4.6 -17.8°
Maximum altitude 23:31:56 21° 325° (NW) 1,813 4.4 -17.7°
Drops below altitude 10° 23:36:07 10° 14° (NNE) 2,463 5.9 -17.6°
Sets 23:39:14 0° 30° (NNE) 3,404 6.8 -17.4°
